Regional Weather Roundup
Issued by NWS

Home | Current Version | Previous Version | Text Only | Print | Product List | Glossary On
Versions: 1 2 3 4 5 6 7 8 9 10 11 12 13 14 15 16 17 18 19 20 21 22 23 24 25 26 27 28 29 30 31 32 33 34 35 36 37 38 39 40 41 42 43 44 45 46 47 48 49 50
000
ASUS44 KOUN 280010
RWROK

WEATHER ROUNDUP FOR OKLAHOMA
NATIONAL WEATHER SERVICE NORMAN OK
700 PM CDT FRI MAR 27 2015

NOTE: "FAIR" INDICATES FEW OR NO CLOUDS BELOW 12,000 FEET WITH NO
      SIGNIFICANT WEATHER AND/OR OBSTRUCTIONS TO VISIBILITY.

OKZ001>007-009>012-014-015-017-280100-
NORTHWEST OKLAHOMA AND THE PANHANDLE

CITY           SKY/WX    TMP DP  RH WIND       PRES   REMARKS
GAGE           SUNNY     66  31  27 CALM      30.08F
6HR MIN TEMP:  51; 6HR MAX TEMP:  66;

GUYMON         SUNNY     69  33  26 S7        30.05F
ENID/WOODRING  MOCLDY    55  34  44 SW7       30.12F
$$

OKZ016-021>023-033>039-044-045-280100-
SOUTHWEST OKLAHOMA

CITY           SKY/WX    TMP DP  RH WIND       PRES   REMARKS
LAWTON/REGL    CLEAR     59  39  47 NE5       30.15S
6HR MIN TEMP:  57; 6HR MAX TEMP:  62;

LAWTON/FT SILL CLEAR     59  40  49 NE6       30.13F
FREDERICK      SUNNY     63  41  44 SE8       30.10F
CLINTON        SUNNY     58  40  51 S10       30.13F
HOBART         SUNNY     58  41  53 SE6       30.13F
ALTUS AFB      MOSUNNY   63  40  42 SE2       30.11F
$$

OKZ018>020-024>031-280100-
CENTRAL OKLAHOMA

CITY           SKY/WX    TMP DP  RH WIND       PRES   REMARKS
OKLAHOMA CITY  MOCLDY    56  34  43 W6        30.15R
6HR MIN TEMP:  49; 6HR MAX TEMP:  57;

OKC/WILEY POST PTCLDY    55  35  47 W5        30.14F
OKC/TINKER AFB PTCLDY    55  34  45 W5        30.13S
STILLWATER     PTCLDY    54  28  36 CALM      30.13F
GUTHRIE        PTCLDY    56  32  40 W5        30.13S
$$

OKZ008-013-054>072-280100-
NORTHEAST OKLAHOMA

CITY           SKY/WX    TMP DP  RH WIND       PRES   REMARKS
TULSA          MOCLDY    52  24  33 NE6       30.14F
6HR MIN TEMP:  51; 6HR MAX TEMP:  56;

TULSA/JONES    MOCLDY    53  28  38 NE7       30.14F
PONCA CITY     PTCLDY    53  27  36 W5        30.15R
BARTLESVILLE   CLOUDY    52  23  32 CALM      30.16S
MUSKOGEE       PTCLDY    52  28  39 NE6       30.16F
$$

OKZ032-040>043-046>053-073>077-280100-
SOUTH CENTRAL/SOUTHEAST OKLAHOMA

CITY           SKY/WX    TMP DP  RH WIND       PRES   REMARKS
ARDMORE/DWNTWN PTCLDY    57  34  41 CALM      30.15R
MCALESTER      MOCLDY    56  32  40 NE5       30.14F
$$




USA.gov is the U.S. government's official web portal to all federal, state and local government web resources and services.